Onalaska, WI

2:41 PM CST on February 11, 2016 (GMT -0600)
La Crosse Municipal

Weather History for KLSE - September, 2013

Change the Weather History Date:

Monday, September 16, 2013

  Actual Average Record
Temperature  
Mean Temperature 59 °F 63 °F  
Max Temperature 68 °F 73 °F 94 °F (1931)
Min Temperature 49 °F 52 °F 34 °F (1916)
Degree Days  
Heating Degree Days 6 4  
Month to date heating degree days 25 42  
Since 1 July heating degree days 39 62  
Cooling Degree Days 0 2  
Month to date cooling degree days 103 56  
Year to date cooling degree days 888 756  
Growing Degree Days 7 (Base 50)    
Moisture  
Dew Point 42 °F    
Average Humidity 56    
Maximum Humidity 77    
Minimum Humidity 34    
Precipitation  
Precipitation 0.00 in 0.11 in 2.85 in (1992)
Month to date precipitation 0.81 1.96  
Year to date precipitation 27.96 25.92  
Snow  
Snow 0.00 in 0.00 in 0.00 in (2002)
Month to date snowfall 0.0 0.0  
Since 1 July snowfall T 0.0  
Snow Depth 0.00 in    
Sea Level Pressure  
Sea Level Pressure 30.35 in    
Wind  
Wind Speed 6 mph (ENE)    
Max Wind Speed 13 mph    
Max Gust Speed -    
Visibility 10 miles    
Events      
T = Trace of Precipitation, MM = Missing Value Source: NWS Daily Summary

Daily Weather History Graph

Daily Weather History Graph

Search for Another Location

Airport or City:

Trip Planner

Search our weather history database for the weather conditions in past years. The results will help you decide how hot, cold, wet, or windy it might be!

Date:

Astronomy

Sep. 16, 2013 Rise Set
Actual Time 6:45 AM CDT 7:13 PM CDT
Civil Twilight 6:16 AM CDT 7:41 PM CDT
Nautical Twilight 5:42 AM CDT 8:15 PM CDT
Astronomical Twilight 5:07 AM CDT 8:50 PM CDT
Moon 5:25 PM CDT (9/16) 3:27 AM CDT (9/16)
Length of Visible Light 13h 25m
Length of Day
12h 27m
Waxing Gibbous, 90% of the Moon is Illuminated
Sep 16
Waxing Gibbous
Sep 19
Full
Sep 26
Last Quarter
Oct 4
New
Oct 11
First Quarter

Hourly Weather History & Observations

Time (CDT) Temp. Dew Point Humidity Pressure Visibility Wind Dir Wind Speed Gust Speed Precip Events Conditions
12:53 AM 57.0 °F 48.0 °F 72% 30.29 in 10.0 mi NNE 6.9 mph - N/A   Overcast
1:53 AM 55.9 °F 46.9 °F 72% 30.30 in 10.0 mi North 9.2 mph - N/A   Overcast
2:53 AM 54.0 °F 45.0 °F 72% 30.31 in 10.0 mi NNE 4.6 mph - N/A   Overcast
3:53 AM 54.0 °F 44.1 °F 69% 30.32 in 10.0 mi Variable 3.5 mph - N/A   Overcast
4:53 AM 53.1 °F 44.1 °F 71% 30.33 in 10.0 mi East 6.9 mph - N/A   Overcast
5:53 AM 51.1 °F 43.0 °F 74% 30.36 in 10.0 mi ENE 8.1 mph - N/A   Overcast
6:53 AM 50.0 °F 42.1 °F 74% 30.38 in 10.0 mi ENE 11.5 mph - N/A   Overcast
7:31 AM 48.2 °F 39.2 °F 71% 30.40 in 10.0 mi East 9.2 mph - N/A   Scattered Clouds
7:53 AM 48.9 °F 39.9 °F 71% 30.40 in 10.0 mi East 8.1 mph - N/A   Clear
8:53 AM 50.0 °F 41.0 °F 71% 30.41 in 10.0 mi East 8.1 mph - N/A   Clear
9:53 AM 54.0 °F 42.1 °F 64% 30.42 in 10.0 mi Variable 6.9 mph - N/A   Clear
10:53 AM 55.9 °F 39.9 °F 55% 30.41 in 10.0 mi East 6.9 mph - N/A   Clear
11:53 AM 59.0 °F 39.9 °F 49% 30.41 in 10.0 mi ENE 5.8 mph - N/A   Clear
12:53 PM 61.0 °F 39.0 °F 44% 30.40 in 10.0 mi Variable 3.5 mph - N/A   Clear
1:53 PM 64.9 °F 39.9 °F 40% 30.38 in 10.0 mi Variable 6.9 mph - N/A   Clear
2:53 PM 64.9 °F 39.9 °F 40% 30.35 in 10.0 mi Calm Calm - N/A   Clear
3:53 PM 66.0 °F 39.0 °F 37% 30.33 in 10.0 mi Calm Calm - N/A   Clear
4:53 PM 66.9 °F 37.9 °F 34% 30.32 in 10.0 mi ENE 3.5 mph - N/A   Clear
5:53 PM 66.0 °F 37.9 °F 36% 30.30 in 10.0 mi East 6.9 mph - N/A   Clear
6:53 PM 63.0 °F 39.9 °F 43% 30.30 in 10.0 mi East 5.8 mph - N/A   Clear
7:53 PM 57.9 °F 44.1 °F 60% 30.30 in 10.0 mi East 4.6 mph - N/A   Clear
8:53 PM 55.0 °F 45.0 °F 69% 30.31 in 10.0 mi East 5.8 mph - N/A   Clear
9:53 PM 52.0 °F 45.0 °F 77% 30.32 in 10.0 mi SE 4.6 mph - N/A   Clear
10:53 PM 51.1 °F 45.0 °F 80% 30.31 in 10.0 mi East 9.2 mph - N/A   Clear
11:53 PM 51.1 °F 44.1 °F 77% 30.32 in 10.0 mi ESE 5.8 mph - N/A   Clear